Plato, MN

10:52 PM CST on December 03, 2016 (GMT -0600)
Glencoe Municipal

Weather History for KGYL - December, 2012

Change the Weather History Date:

Friday, December 7, 2012

  Actual Average (KHCD) Record (KHCD)
Temperature  
Mean Temperature 24 °F -  
Max Temperature 30 °F 27 °F 47 °F (1965)
Min Temperature 19 °F 10 °F -19 °F (1972)
Degree Days  
Heating Degree Days 40    
Moisture  
Dew Point 22 °F    
Average Humidity 88    
Maximum Humidity 96    
Minimum Humidity 75    
Precipitation  
Precipitation 0.00 in - - ()
Sea Level Pressure  
Sea Level Pressure 30.02 in    
Wind  
Wind Speed 2 mph (North)    
Max Wind Speed 10 mph    
Max Gust Speed -    
Visibility 7 miles    
Events Snow    
Averages and records for this station are not official NWS values.
T = Trace of Precipitation, MM = Missing Value Source: NWS Daily Summary

Daily Weather History Graph

Daily Weather History Graph

Search for Another Location

Airport or City:

Trip Planner

Search our weather history database for the weather conditions in past years. The results will help you decide how hot, cold, wet, or windy it might be!

Date:

Astronomy

Dec. 07, 2012 Rise Set
Actual Time 7:40 AM CST 4:35 PM CST
Civil Twilight 7:07 AM CST 5:08 PM CST
Nautical Twilight 6:30 AM CST 5:45 PM CST
Astronomical Twilight 5:54 AM CST 6:21 PM CST
Moon 12:46 AM CST (12/7) 12:45 PM CST (12/7)
Length of Visible Light 10h 01m
Length of Day
8h 55m
Last Quarter, 38% of the Moon is Illuminated
Dec 7
Last Quarter
Dec 13
New
Dec 19
First Quarter
Dec 28
Full
Jan 4
Last Quarter

Hourly Weather History & Observations

Time (CST) Temp. Windchill Dew Point Humidity Pressure Visibility Wind Dir Wind Speed Gust Speed Precip Events Conditions
12:16 AM 22.1 °F - 17.8 °F 83% 30.00 in 10.0 mi Calm Calm - N/A   Clear
12:36 AM 23.0 °F 18.4 °F 18.7 °F 84% 30.01 in 10.0 mi West 3.5 mph - N/A   Clear
12:56 AM 24.3 °F 18.4 °F 19.9 °F 84% 30.01 in 10.0 mi SW 4.6 mph - N/A   Clear
1:16 AM 23.4 °F 17.4 °F 19.6 °F 85% 30.01 in 10.0 mi SW 4.6 mph - N/A   Clear
1:36 AM 22.1 °F 17.4 °F 18.0 °F 84% 30.01 in 10.0 mi West 3.5 mph - N/A   Clear
1:56 AM 22.5 °F - 19.2 °F 87% 30.01 in 10.0 mi Calm Calm - N/A   Clear
2:16 AM 23.2 °F - 19.0 °F 84% 30.02 in 10.0 mi Calm Calm - N/A   Clear
2:36 AM 21.9 °F - 18.5 °F 87% 30.02 in 10.0 mi Calm Calm - N/A   Clear
2:56 AM 20.7 °F 15.8 °F 17.6 °F 88% 30.03 in 10.0 mi WSW 3.5 mph - N/A   Clear
3:15 AM 21.0 °F - 17.8 °F 87% 30.02 in 10.0 mi Calm Calm - N/A   Clear
3:36 AM 21.9 °F - 18.5 °F 87% 30.02 in 10.0 mi Calm Calm - N/A   Clear
3:56 AM 21.4 °F - 18.3 °F 88% 30.01 in 10.0 mi Calm Calm - N/A   Clear
4:16 AM 21.7 °F - 18.9 °F 89% 30.00 in 10.0 mi Calm Calm - N/A   Clear
4:35 AM 21.6 °F - 18.0 °F 86% 30.00 in 10.0 mi Calm Calm - N/A   Clear
4:56 AM 21.0 °F - 18.1 °F 89% 30.01 in 10.0 mi Calm Calm - N/A   Scattered Clouds
5:16 AM 21.4 °F - 18.5 °F 89% 30.01 in 10.0 mi Calm Calm - N/A   Scattered Clouds
5:36 AM 21.6 °F - 18.5 °F 88% 30.01 in 10.0 mi Calm Calm - N/A   Clear
5:55 AM 21.4 °F - 18.5 °F 89% 30.00 in 10.0 mi Calm Calm - N/A   Clear
6:16 AM 22.1 °F - 18.7 °F 87% 30.00 in 10.0 mi Calm Calm - N/A   Clear
6:35 AM 21.7 °F - 18.7 °F 88% 30.00 in 10.0 mi Calm Calm - N/A   Clear
6:56 AM 20.5 °F - 18.0 °F 90% 30.01 in 10.0 mi Calm Calm - N/A   Clear
7:16 AM 19.9 °F - 17.6 °F 91% 30.00 in 10.0 mi Calm Calm - N/A   Clear
7:36 AM 19.9 °F - 17.6 °F 91% 30.01 in 10.0 mi Calm Calm - N/A   Mostly Cloudy
7:56 AM 20.1 °F - 17.8 °F 91% 30.02 in 7.0 mi Calm Calm - N/A   Overcast
8:15 AM 20.8 °F - 18.5 °F 91% 30.03 in 10.0 mi Calm Calm - N/A   Overcast
8:36 AM 22.6 °F - 20.1 °F 90% 30.02 in 10.0 mi Calm Calm - N/A   Mostly Cloudy
8:56 AM 23.7 °F - 20.8 °F 89% 30.03 in 10.0 mi Calm Calm - N/A   Mostly Cloudy
9:16 AM 25.0 °F - 21.2 °F 86% 30.03 in 10.0 mi Calm Calm - N/A   Mostly Cloudy
9:35 AM 26.2 °F - 21.9 °F 84% 30.03 in 10.0 mi Calm Calm - N/A   Scattered Clouds
9:56 AM 27.1 °F 21.8 °F 22.1 °F 81% 30.04 in 10.0 mi West 4.6 mph - N/A   Scattered Clouds
10:16 AM 27.5 °F 22.2 °F 22.1 °F 80% 30.04 in 10.0 mi NW 4.6 mph - N/A   Scattered Clouds
10:36 AM 28.0 °F 21.7 °F 22.1 °F 78% 30.06 in 10.0 mi WNW 5.8 mph - N/A   Scattered Clouds
10:55 AM 28.2 °F 23.1 °F 21.9 °F 77% 30.05 in 10.0 mi WNW 4.6 mph - N/A   Mostly Cloudy
11:16 AM 28.4 °F 23.3 °F 21.9 °F 77% 30.04 in 10.0 mi WNW 4.6 mph - N/A   Mostly Cloudy
11:36 AM 28.8 °F 22.6 °F 22.1 °F 76% 30.04 in 10.0 mi WNW 5.8 mph - N/A   Mostly Cloudy
11:56 AM 29.3 °F 22.3 °F 22.3 °F 75% 30.04 in 10.0 mi WNW 6.9 mph - N/A   Mostly Cloudy
12:15 PM 29.3 °F 22.3 °F 22.5 °F 76% 30.04 in 10.0 mi NW 6.9 mph - N/A   Overcast
12:36 PM 30.0 °F 21.7 °F 22.8 °F 75% 30.03 in 10.0 mi NNW 9.2 mph - N/A   Overcast
12:55 PM 30.2 °F 22.6 °F 23.0 °F 75% 30.03 in 10.0 mi NNW 8.1 mph - N/A   Overcast
1:16 PM 29.7 °F 21.3 °F 24.3 °F 80% 30.02 in 2.5 mi NNW 9.2 mph - N/A Snow Light Snow
1:36 PM 28.9 °F 19.8 °F 25.3 °F 86% 30.01 in 3.0 mi North 10.4 mph - N/A Snow Light Snow
1:56 PM 29.3 °F 21.5 °F 25.7 °F 86% 30.01 in 3.0 mi North 8.1 mph - N/A Snow Light Snow
2:16 PM 28.9 °F 21.1 °F 26.2 °F 90% 30.00 in 0.8 mi North 8.1 mph - N/A Snow Light Snow
2:35 PM 28.4 °F 22.2 °F 26.4 °F 92% 30.00 in 1.2 mi NNE 5.8 mph - N/A Snow Light Snow
2:56 PM 28.4 °F 21.2 °F 26.6 °F 93% 30.00 in 2.0 mi NNE 6.9 mph - N/A Snow Light Snow
3:16 PM 28.6 °F 22.4 °F 26.6 °F 92% 30.00 in 1.5 mi NNE 5.8 mph - N/A Snow Light Snow
3:36 PM 28.4 °F - 26.6 °F 93% 30.00 in 1.5 mi Calm Calm - N/A Snow Light Snow
3:56 PM 28.2 °F 22.0 °F 26.2 °F 92% 30.01 in 1.5 mi NNE 5.8 mph - N/A Snow Light Snow
4:16 PM 28.0 °F 21.7 °F 26.2 °F 93% 30.01 in 1.5 mi NE 5.8 mph - N/A Snow Light Snow
4:36 PM 28.0 °F 24.2 °F 26.2 °F 93% 30.01 in 1.5 mi NNE 3.5 mph - N/A Snow Light Snow
4:56 PM 28.0 °F 24.2 °F 26.4 °F 94% 30.01 in 2.5 mi NE 3.5 mph - N/A Snow Light Snow
5:15 PM 27.9 °F 21.5 °F 26.2 °F 94% 30.01 in 2.0 mi NE 5.8 mph - N/A Snow Light Snow
5:36 PM 27.9 °F 24.0 °F 26.4 °F 94% 30.01 in 2.5 mi NNE 3.5 mph - N/A Snow Light Snow
5:56 PM 27.9 °F 24.0 °F 26.4 °F 94% 30.01 in 2.0 mi NNE 3.5 mph - N/A Snow Light Snow
6:16 PM 27.5 °F 23.6 °F 26.2 °F 95% 30.01 in 3.0 mi NE 3.5 mph - N/A Snow Light Snow
6:36 PM 27.5 °F 22.2 °F 26.2 °F 95% 30.01 in 3.0 mi NNE 4.6 mph - N/A Snow Light Snow
7:16 PM 27.3 °F 23.4 °F 25.7 °F 94% 30.02 in 5.0 mi NE 3.5 mph - N/A   Overcast
7:36 PM 27.1 °F 23.2 °F 25.5 °F 94% 30.02 in 5.0 mi NE 3.5 mph - N/A Snow Light Snow
7:56 PM 26.6 °F - 25.2 °F 94% 30.02 in 5.0 mi Calm Calm - N/A   Overcast
8:36 PM 26.2 °F - 24.8 °F 94% 30.02 in 5.0 mi Calm Calm - N/A   Scattered Clouds
8:55 PM 26.2 °F - 24.8 °F 94% 30.02 in 5.0 mi Calm Calm - N/A   Scattered Clouds
9:16 PM 26.1 °F - 24.8 °F 95% 30.02 in 7.0 mi Calm Calm - N/A   Scattered Clouds
9:36 PM 26.1 °F 21.9 °F 24.8 °F 95% 30.02 in 7.0 mi ENE 3.5 mph - N/A   Overcast
9:56 PM 26.1 °F - 24.8 °F 95% 30.02 in 7.0 mi Calm Calm - N/A   Overcast
10:15 PM 26.1 °F 21.9 °F 24.6 °F 94% 30.02 in 4.0 mi NNE 3.5 mph - N/A Snow Light Snow
10:36 PM 25.9 °F - 24.6 °F 95% 30.02 in 4.0 mi Calm Calm - N/A   Overcast
10:56 PM 25.5 °F - 24.3 °F 95% 30.02 in 5.0 mi Calm Calm - N/A   Mostly Cloudy
11:15 PM 25.3 °F - 23.9 °F 94% 30.02 in 3.0 mi Calm Calm - N/A   Overcast
11:36 PM 24.8 °F - 23.5 °F 95% 30.03 in 3.0 mi Calm Calm - N/A   Overcast
11:55 PM 24.6 °F - 23.5 °F 96% 30.03 in 4.0 mi Calm Calm - N/A Snow Light Snow